Location: Anciles
(42.5833°N, 0.5167°E)
Time: 05:31:44
(UTC+00:00)

Okean-O - Pass Details

Date: 10 December 2019
Orbit: 639 x 641 km, 98.2° (Epoch: 26 January)

Event Time Altitude Azimuth Distance (km) Brightness Sun altitude
Rises 17:09:23 0° 144° (SE) 2,933 5.9 -8.2°
Reaches altitude 10° 17:11:42 10° 137° (SE) 2,029 5.0 -8.6°
Maximum altitude 17:15:45 37° 70° (ENE) 999 3.1 -9.2°
Drops below altitude 10° 17:19:51 10° 3° (N) 2,043 5.0 -9.9°
Sets 17:22:10 0° 355° (N) 2,956 5.9 -10.3°
